LiveATC.Net - Listen to live air traffic control over the Internet!


ICAO: 2O3  IATA: 2O3   Airport: Angwin Airport-Parrett Field
City: Angwin   State/Province: California
Country: United States   Continent: North America
KSTS METAR Weather: KSTS 262053Z 17008KT 9SM -RA SCT029 OVC040 08/03 A2990 RMK AO2 RAB37 SLP119 P0000 60000 T00830033 58025
2O3 Flight Activity (FlightAware)
2O3 Airport Info   (iFlightPlanner)
2O3 VFR Sectional Chart   (iFlightPlanner) 
2O3 IFR Low Chart   (iFlightPlanner) 

2O3 CTAF
Feed Status: DOWN
Last heard on: 2021-01-22 21:05:39 (4 days 0 hours 43 minutes ago)
Archive Access: 2O3 CTAF
FacilityFrequency
Angwin CTAF123.000

NOTICE

Unauthorized use prohibited. See LiveATC.net Terms of Service


Airport/ARTCC Code
Frequency Search
(e.g., 124.400, 128.75)
Site-wide search
 


Browse Feeds
Top 50 Feeds
Coverage Map
Bad Weather Areas

LiveATC FAQ
Offer LiveATC feed
Contact LiveATC.net
Press Inquiries

LiveATC on iPhone
LiveATC on Android

Windows Phone
Windows 8/10

LiveATC Mobile
(Mobile browser)

ATC Audio Archives
Interesting Recordings

LiveATC Forums


Home Page
About LiveATC.net
Make a Donation
Terms of Use
Privacy Policy

Canadian Air Freqs

AIRMETs/SIGMETs

FAA Airport Status
Nat'l Airspace Status
Arrival Demand Charts


Server Software By:
Icecast.org
Liquidsoap